Location: Doschendorf
(50.0069°N, 11.0602°E)
Time: 00:27:04
(UTC+00:00)

SKYMED 2 - Pass Details

Date: 17 November 2019
Orbit: 621 x 623 km, 97.9° (Epoch: 05 December)

Event Time Altitude Azimuth Distance (km) Brightness Sun altitude
Exits shadow 17:45:44 15° 9° (N) 1,717 5.7 -21.6°
Maximum altitude 17:49:22 73° 287° (WNW) 655 3.7 -22.2°
Drops below altitude 10° 17:53:41 10° 203° (SSW) 1,988 6.4 -22.9°
Sets 17:55:52 0° 201° (SSW) 2,889 7.3 -23.2°
